パンスターズ彗星

P/2015 X1 ( PanSTARRS )

English version
Home page
Updated on March 25, 2017

---------------------------------------------------------------------

・ プロフィール

発見日 2015年12月1日
発見光度 20.4等
発見者 Pan-STARRS 1 telescope (Haleakala)

・ 写真集

・ 軌道要素

Epoch 2015 Oct. 25.0 TT = JDT 2457320.5
T 2015 Oct. 10.67991 TT                                 MPCW
q   2.1035429            (2000.0)            P               Q
n   0.14254923     Peri.  219.03141     +0.93026955     -0.36092173
a   3.6293272      Node   161.79107     +0.36659672     +0.90746112
e   0.4204042      Incl.   12.16215     +0.01433209     +0.21505773
P   6.91
From 85 observations 2015 Aug. 12-2016 Jan. 3, mean residual 0".4.

・ 光度変化

        m1 = 16.0 + 5 logΔ + 10.0 log r

---------------------------------------------------------------------

軌道要素はM.P.E.C. 2016-Q04に掲載されたものです。
光度グラフはComet for Windowsで作成したものです。

---------------------------------------------------------------------

Copyright(C) Seiichi Yoshida (comet@aerith.net). All rights reserved.